Content
SEND FEEDBACK

Daily
Averages
Monthly
Summary
United States of America

ATLANTA, KANSAS


Home > North America > United States > Kansas
Elevation: 1440 feet     Latitude: 37 26N     Longitude: 096 46W

WEATHER
 
SELECT A DAY
Number of Records: 17,043;   Date Range: 9/1/12 - 8/12/14
 
SHARE

PRINT THIS DATA

[ ← Previous Day ]
WEATHER ALMANAC - FEBRUARY 5, 2013
[ Next Day → ]
[ °C ]   °F
Weather ElementAverageHighLow
Temperature45.4 °F66.9 °F (2:54 pm)23 °F (5:54 am)
Dewpoint26.5 °F33.1 °F (10:54 am)19.9 °F (5:54 am)
Humidity54.9 %89 % (3:54 am)21 % (2:54 pm)
Barometer30.01 in30.06 in (8:54 am)29.94 in (1:54 am)
Wind Speed4 mph10.4 mph (12:54 pm)
Wind Gust16.1 mph (12:54 pm)
Weather ElementAverage
Visibility9.4 mi
Wind DirectionESE (126.4 °)

Weather ElementTotal
Precipitation---
Heating Degree Days20.1 (Base 65)
Averaged from 22 records on February 5, 2013
WEATHER CONDITIONS BREAKOUT
WIND DIRECTION BREAKOUT
WEATHER BY HOUR - FEBRUARY 5, 2013
[ °C ]   °F
Local TimeTemperatureDewpointHumidityBarometerVisibilityWind DirectionWind SpeedGust SpeedPrecipitationEventsConditions
1:54 AM34.0 °F27.0 °F75 %29.94 in10.0 miSE (130°)6.9 mphClear
2:54 AM33.1 °F26.1 °F75 %29.96 in10.0 miCalmClear
3:54 AM27.0 °F24.1 °F89 %29.95 in8.0 miCalmClear
4:54 AM26.1 °F21.9 °F84 %29.96 in9.0 miCalmClear
5:54 AM23.0 °F19.9 °F88 %29.98 in8.0 miNNW (340°)4.6 mphClear
6:54 AM23.0 °F19.9 °F88 %30.01 in7.0 miCalmClear
7:54 AM24.1 °F21.0 °F88 %30.03 in7.0 miCalmClear
8:54 AM33.1 °F28.9 °F85 %30.06 in7.0 miNNW (340°)3.5 mphClear
9:54 AM43.0 °F32.0 °F65 %30.06 in10.0 miNNW (330°)5.8 mphClear
10:54 AM50.0 °F33.1 °F52 %30.06 in10.0 miNW (310°)5.8 mphClear
11:54 AM57.0 °F32.0 °F39 %30.04 in10.0 miWest (270°)9.2 mphClear
12:54 PM62.1 °F30.0 °F30 %30.02 in10.0 miWSW (250°)10.4 mph16.1 mphClear
1:54 PM64.9 °F28.0 °F25 %30.01 in10.0 miWNW (290°)6.9 mphClear
2:54 PM66.9 °F26.1 °F21 %29.99 in10.0 miNorth (10°)8.1 mphClear
3:54 PM66.0 °F25.0 °F21 %29.99 in10.0 miCalmClear
4:54 PM64.9 °F25.0 °F22 %30.00 in10.0 miNE (50°)6.9 mphClear
5:54 PM61.0 °F24.1 °F24 %30.00 in10.0 miNE (50°)3.5 mphClear
6:54 PM55.9 °F25.0 °F30 %30.03 in10.0 miEast (100°)4.6 mphClear
7:54 PM52.0 °F27.0 °F38 %30.04 in10.0 miESE (110°)4.6 mphClear
9:54 PM42.1 °F27.0 °F55 %30.06 in10.0 miCalmClear
10:54 PM46.0 °F30.0 °F54 %30.06 in10.0 miEast (80°)4.6 mphClear
11:54 PM43.0 °F30.0 °F60 %30.06 in10.0 miESE (120°)3.5 mphClear
Hourly data recorded from KWLD, located miles away from Atlanta, Kansas







STORIES FROM OUR PARTNERS